Lid_Strength_Index
3 3 3 3 3 3 4 4 4 3 3 3 3 3 3 3 3 4 4 3 2 1 1 4 4 3 5 5 3 3 8 9 9 9 8 5 6 5 4 4 4 3 3 2 2
3 3 3 4 4 4 4 4 4 4 4 3 3 3 3 3 4 4 1 -1 -0 0 4 5 5 4 5 6 5 6 8 9 6 6 6 5 5 5 5 5 5 4 3 2 2
3 4 4 4 4 4 4 4 4 4 4 3 3 3 3 4 5 5 0 0 0 1 3 3 4 4 7 6 7 6 8 6 6 5 5 5 5 4 5 6 5 5 5 3 2
4 4 4 4 4 4 4 4 4 3 3 3 3 3 3 3 9 4 -0 0 1 2 3 4 5 7 7 8 6 8 7 6 6 5 5 6 4 5 5 5 4 4 4 4 3
4 4 4 4 4 4 3 3 3 4 3 3 2 3 4 4 6 3 -1 -1 1 2 3 4 6 6 8 7 7 8 7 6 6 6 5 5 6 5 5 4 4 4 4 4 4
4 4 4 4 4 4 3 3 4 4 3 3 3 4 3 7 4 4 4 4 4 4 4 4 5 5 6 7 7 6 7 7 6 6 6 6 6 5 5 4 4 4 4 4 3
4 4 4 4 4 4 3 4 4 4 3 3 3 3 5 8 4 3 4 4 3 4 5 4 3 5 5 7 5 6 8 7 7 6 7 6 8 7 5 4 4 4 3 3 3
4 5 4 4 4 4 4 4 4 3 2 2 3 2 7 4 4 4 4 4 4 3 3 3 2 4 5 4 6 7 8 10 7 6 6 7 10 7 5 5 5 4 4 3 3
5 5 5 4 4 4 4 4 4 2 2 2 3 3 8 3 5 4 4 5 4 4 3 2 2 4 5 7 8 8 11 10 9 6 6 7 10 7 5 5 5 4 4 4 3
5 5 5 5 4 4 5 4 2 3 2 2 3 6 6 7 5 4 3 3 4 4 4 4 4 7 7 8 12 11 10 9 9 7 6 7 8 6 5 5 5 5 4 4 4
5 5 5 5 5 5 5 4 6 6 5 8 7 7 7 5 4 4 2 3 3 4 7 5 7 9 8 7 8 9 10 12 9 7 8 8 8 6 5 5 5 5 4 4 4
5 5 5 5 5 5 5 6 6 6 8 6 6 6 5 4 6 4 3 5 5 7 6 7 9 7 7 7 8 9 12 11 9 7 8 9 9 7 6 6 5 5 4 4 4
5 5 5 5 5 5 4 6 4 4 8 7 7 6 6 4 5 5 3 4 6 7 7 9 8 6 7 8 9 9 10 10 10 9 8 9 10 9 6 6 5 5 4 4 4
5 6 5 6 6 4 6 5 4 4 9 9 8 6 5 4 5 3 2 4 6 7 7 8 6 7 8 9 8 10 8 8 10 10 16 9 16 10 8 7 6 5 5 5 4
5 6 6 6 5 6 6 4 3 3 15 9 7 4 4 5 5 5 2 4 7 7 7 9 8 8 9 8 7 9 7 8 9 10 11 12 14 11 8 9 7 6 5 4 4
6 6 6 5 4 5 4 3 3 10 14 10 7 7 7 5 5 4 4 3 4 6 6 7 5 7 7 6 7 6 8 8 9 10 16 12 13 12 10 8 7 6 5 4 4
6 6 7 4 6 5 4 4 10 13 9 10 10 7 7 7 6 6 7 7 8 11 10 8 8 6 6 8 7 8 11 17 17 16 16 10 12 12 8 7 6 6 5 4 4
7 7 4 3 4 5 5 7 12 10 11 9 9 7 8 7 7 7 7 9 7 8 10 13 14 9 6 8 9 10 10 17 21 18 15 10 14 11 7 6 5 5 5 4 4
7 3 3 5 4 4 6 11 12 11 10 10 9 9 9 7 8 8 9 8 7 7 12 13 13 7 7 6 7 10 12 10 16 15 17 13 10 8 7 7 6 6 5 4 4
6 4 4 4 3 5 8 12 10 9 9 9 11 8 11 9 10 9 10 8 8 7 7 10 15 9 7 6 7 9 8 14 13 18 19 14 13 14 11 9 7 6 5 5 4
5 5 5 4 3 6 11 11 10 8 8 9 10 9 9 10 9 10 10 8 7 8 7 9 12 12 9 10 12 11 12 11 12 15 19 20 17 11 11 9 9 9 7 5 5
4 8 4 3 8 8 10 10 10 8 7 8 8 7 9 9 10 10 10 9 7 7 10 9 11 15 13 8 7 10 11 11 16 15 13 15 16 8 9 8 9 8 6 6 4
7 7 3 4 10 10 8 9 9 9 9 9 9 7 6 9 14 10 9 7 7 8 10 9 12 17 14 12 10 11 10 10 12 12 15 17 14 8 7 8 8 7 6 6 4
7 9 7 7 7 9 10 9 9 8 8 8 8 7 7 9 8 10 9 8 7 8 7 8 12 15 17 15 12 14 12 11 11 17 15 13 12 10 10 10 9 7 6 5 5
7 9 7 11 9 8 8 9 10 10 8 8 8 7 8 12 10 10 8 8 7 8 8 9 14 12 12 11 11 12 12 11 13 12 15 14 13 10 9 9 8 6 6 6 5
9 9 8 9 7 8 9 9 10 9 9 9 9 7 7 10 10 12 9 9 10 8 9 9 14 13 14 11 10 12 13 13 12 12 12 12 13 8 7 7 7 7 7 7 6
6 6 8 8 8 9 9 10 10 9 8 7 7 8 8 7 6 6 6 6 7 9 9 11 12 14 16 12 12 17 14 13 13 12 13 15 12 10 11 10 9 7 7 7 6